Canton, GA

9:37 AM EDT on July 23, 2017 (GMT -0400)
Canton

Weather History for KCNI - February, 2013

Change the Weather History Date:

Wednesday, February 13, 2013

  Actual Average (KMGE) Record (KMGE)
Temperature  
Mean Temperature 42 °F -  
Max Temperature 50 °F 53 °F 68 °F (2009)
Min Temperature 35 °F 35 °F 22 °F (2012)
Degree Days  
Heating Degree Days 22    
Moisture  
Dew Point 36 °F    
Average Humidity 76    
Maximum Humidity 87    
Minimum Humidity 65    
Precipitation  
Precipitation 0.00 in - - ()
Sea Level Pressure  
Sea Level Pressure 29.83 in    
Wind  
Wind Speed 7 mph (NNW)    
Max Wind Speed 13 mph    
Max Gust Speed 24 mph    
Visibility 8 miles    
Events Rain    
Averages and records for this station are not official NWS values.
T = Trace of Precipitation, MM = Missing Value Source: NWS Daily Summary

Daily Weather History Graph

Daily Weather History Graph

Search for Another Location

Airport or City:

Trip Planner

Search our weather history database for the weather conditions in past years. The results will help you decide how hot, cold, wet, or windy it might be!

Date:

Astronomy

Feb. 13, 2013 Rise Set
Actual Time 7:24 AM EST 6:19 PM EST
Civil Twilight 6:58 AM EST 6:45 PM EST
Nautical Twilight 6:29 AM EST 7:14 PM EST
Astronomical Twilight 6:00 AM EST 7:44 PM EST
Moon 9:05 AM EST (2/13) 10:07 PM EST (2/13)
Length of Visible Light 11h 46m
Length of Day
10h 55m
Waxing Crescent, 13% of the Moon is Illuminated
Feb 13
Waxing Crescent
Feb 17
First Quarter
Feb 25
Full
Mar 4
Last Quarter
Mar 11
New

Hourly Weather History & Observations

Time (EST) Temp. Windchill Dew Point Humidity Pressure Visibility Wind Dir Wind Speed Gust Speed Precip Events Conditions
12:15 AM 44.6 °F 40.2 °F 33.8 °F 66% 29.85 in 10.0 mi East 8.1 mph - N/A   Overcast
12:35 AM 44.6 °F 40.7 °F 33.8 °F 66% 29.84 in 10.0 mi ENE 6.9 mph 17.3 mph N/A   Overcast
12:55 AM 44.6 °F 39.2 °F 33.8 °F 66% 29.84 in 10.0 mi East 10.4 mph 19.6 mph N/A   Overcast
1:15 AM 44.6 °F 40.2 °F 33.8 °F 66% 29.85 in 10.0 mi East 8.1 mph - N/A   Overcast
1:35 AM 44.6 °F 38.4 °F 35.6 °F 71% 29.83 in 10.0 mi East 12.7 mph 16.1 mph N/A   Light Drizzle
1:55 AM 44.6 °F 39.7 °F 35.6 °F 71% 29.83 in 10.0 mi East 9.2 mph - N/A   Light Drizzle
2:15 AM 44.6 °F 40.7 °F 35.6 °F 71% 29.83 in 10.0 mi East 6.9 mph 16.1 mph N/A   Overcast
2:35 AM 42.8 °F 37.0 °F 35.6 °F 76% 29.82 in 10.0 mi East 10.4 mph - N/A Rain Rain
2:55 AM 42.8 °F 36.6 °F 35.6 °F 76% 29.80 in 7.0 mi East 11.5 mph 19.6 mph N/A   Overcast
3:15 AM 42.8 °F 39.3 °F 37.4 °F 81% 29.80 in 7.0 mi East 5.8 mph - N/A   Overcast
3:35 AM 42.8 °F 38.0 °F 37.4 °F 81% 29.80 in 4.0 mi East 8.1 mph - N/A Rain Light Rain
3:55 AM 42.8 °F 38.0 °F 37.4 °F 81% 29.79 in 4.0 mi East 8.1 mph - N/A   Light Drizzle
4:15 AM 42.8 °F 39.3 °F 37.4 °F 81% 29.78 in 5.0 mi East 5.8 mph - N/A   Haze
4:35 AM 42.8 °F 38.0 °F 37.4 °F 81% 29.77 in 7.0 mi East 8.1 mph - N/A   Overcast
4:55 AM 42.8 °F 37.5 °F 37.4 °F 81% 29.76 in 7.0 mi East 9.2 mph - N/A   Drizzle
5:15 AM 42.8 °F 38.0 °F 37.4 °F 81% 29.75 in 4.0 mi ENE 8.1 mph 16.1 mph N/A   Light Drizzle
5:35 AM 42.8 °F 38.0 °F 37.4 °F 81% 29.75 in 4.0 mi East 8.1 mph 18.4 mph N/A   Haze
5:55 AM 42.8 °F 38.6 °F 37.4 °F 81% 29.76 in 3.0 mi ESE 6.9 mph - N/A   Haze
6:15 AM 42.8 °F 37.5 °F 37.4 °F 81% 29.76 in 2.5 mi East 9.2 mph - N/A   Light Drizzle
6:35 AM 42.8 °F 39.3 °F 37.4 °F 81% 29.77 in 3.0 mi East 5.8 mph - N/A   Light Drizzle
6:55 AM 42.8 °F 37.5 °F 37.4 °F 81% 29.77 in 2.5 mi East 9.2 mph - N/A Rain Rain
7:15 AM 42.8 °F 38.6 °F 37.4 °F 81% 29.76 in 2.5 mi ENE 6.9 mph - N/A   Drizzle
7:35 AM 42.8 °F 40.1 °F 39.2 °F 87% 29.78 in 2.5 mi East 4.6 mph - N/A   Drizzle
7:55 AM 42.8 °F 39.3 °F 39.2 °F 87% 29.76 in 2.0 mi East 5.8 mph - N/A   Drizzle
8:15 AM 42.8 °F 40.1 °F 39.2 °F 87% 29.77 in 2.0 mi ENE 4.6 mph - N/A   Drizzle
8:35 AM 42.8 °F 40.1 °F 39.2 °F 87% 29.77 in 1.5 mi East 4.6 mph - N/A   Drizzle
8:55 AM 42.8 °F - 39.2 °F 87% 29.78 in 1.5 mi Calm Calm - N/A   Light Drizzle
9:15 AM 42.8 °F - 39.2 °F 87% 29.79 in 1.0 mi Calm Calm - N/A Rain Heavy Rain
9:35 AM 42.8 °F - 39.2 °F 87% 29.78 in 1.2 mi Calm Calm - N/A Rain Rain
9:55 AM 42.8 °F - 39.2 °F 87% 29.78 in 1.8 mi Calm Calm - N/A Rain Light Rain
10:15 AM 44.6 °F 43.1 °F 39.2 °F 81% 29.80 in 1.8 mi SE 3.5 mph - N/A   Light Drizzle
10:35 AM 44.6 °F - 41.0 °F 87% 29.80 in 2.5 mi Calm Calm - N/A   Light Drizzle
10:55 AM 44.6 °F - 41.0 °F 87% 29.80 in 5.0 mi Calm Calm - N/A   Overcast
11:15 AM 44.6 °F 43.1 °F 41.0 °F 87% 29.80 in 5.0 mi SW 3.5 mph - N/A Rain Light Rain
11:35 AM 46.4 °F - 42.8 °F 87% 29.78 in 3.0 mi Calm Calm - N/A   Overcast
11:55 AM 46.4 °F 43.5 °F 42.8 °F 87% 29.79 in 10.0 mi WSW 5.8 mph - N/A   Overcast
12:15 PM 48.2 °F - 44.6 °F 87% 29.79 in 10.0 mi West 5.8 mph - N/A   Overcast
12:35 PM 48.2 °F - 42.8 °F 82% 29.77 in 10.0 mi West 8.1 mph - N/A   Overcast
12:55 PM 48.2 °F - 41.0 °F 76% 29.78 in 10.0 mi West 8.1 mph - N/A   Overcast
1:15 PM 48.2 °F - 41.0 °F 76% 29.79 in 10.0 mi West 9.2 mph - N/A   Overcast
1:35 PM 50.0 °F - 39.2 °F 66% 29.78 in 10.0 mi WNW 9.2 mph - N/A   Overcast
1:50 PM - - - N/A% - - SSW 9.2 mph - N/A   Unknown
1:55 PM 48.2 °F - 37.4 °F 66% 29.78 in 10.0 mi West 10.4 mph 24.2 mph N/A   Overcast
2:15 PM 46.4 °F 42.4 °F 35.6 °F 66% 29.78 in 10.0 mi WNW 8.1 mph 18.4 mph N/A   Overcast
2:35 PM 44.6 °F 41.4 °F 37.4 °F 76% 29.79 in 7.0 mi West 5.8 mph 16.1 mph N/A   Overcast
2:55 PM 44.6 °F 40.2 °F 37.4 °F 76% 29.79 in 10.0 mi WNW 8.1 mph - N/A   Light Drizzle
3:15 PM 44.6 °F 40.7 °F 35.6 °F 71% 29.80 in 10.0 mi WNW 6.9 mph - N/A   Overcast
3:35 PM 46.4 °F 41.9 °F 35.6 °F 66% 29.80 in 10.0 mi West 9.2 mph - N/A   Overcast
3:55 PM 46.4 °F 44.3 °F 35.6 °F 66% 29.80 in 10.0 mi West 4.6 mph - N/A   Overcast
4:15 PM 44.6 °F 40.7 °F 35.6 °F 71% 29.81 in 10.0 mi WNW 6.9 mph - N/A   Overcast
4:35 PM 44.6 °F 39.7 °F 35.6 °F 71% 29.82 in 10.0 mi West 9.2 mph - N/A   Overcast
4:55 PM 44.6 °F 39.7 °F 33.8 °F 66% 29.82 in 10.0 mi WNW 9.2 mph - N/A   Overcast
5:15 PM 44.6 °F 41.4 °F 35.6 °F 71% 29.83 in 10.0 mi WNW 5.8 mph - N/A   Overcast
5:35 PM 44.6 °F 40.7 °F 33.8 °F 66% 29.84 in 10.0 mi WNW 6.9 mph - N/A   Overcast
5:55 PM 44.6 °F 38.8 °F 33.8 °F 66% 29.85 in 10.0 mi WNW 11.5 mph 23.0 mph N/A   Overcast
6:15 PM 44.6 °F 38.8 °F 33.8 °F 66% 29.87 in 10.0 mi WNW 11.5 mph 17.3 mph N/A   Overcast
6:35 PM 42.8 °F 38.0 °F 32.0 °F 66% 29.88 in 10.0 mi NW 8.1 mph - N/A   Overcast
6:55 PM 42.8 °F 38.6 °F 32.0 °F 66% 29.89 in 10.0 mi WNW 6.9 mph 18.4 mph N/A   Mostly Cloudy
7:15 PM 42.8 °F 40.1 °F 32.0 °F 66% 29.90 in 10.0 mi WNW 4.6 mph - N/A   Mostly Cloudy
7:35 PM 41.0 °F 38.0 °F 32.0 °F 70% 29.91 in 10.0 mi WNW 4.6 mph - N/A   Mostly Cloudy
7:55 PM 41.0 °F 34.3 °F 30.2 °F 65% 29.91 in 10.0 mi WNW 11.5 mph 17.3 mph N/A   Scattered Clouds
8:15 PM 39.2 °F 32.0 °F 30.2 °F 70% 29.92 in 10.0 mi NW 11.5 mph 16.1 mph N/A   Scattered Clouds
8:35 PM 39.2 °F 32.0 °F 30.2 °F 70% 29.92 in 10.0 mi NW 11.5 mph 17.3 mph N/A   Mostly Cloudy
8:55 PM 39.2 °F 34.2 °F 28.4 °F 65% 29.92 in 10.0 mi WNW 6.9 mph - N/A   Scattered Clouds
9:15 PM 37.4 °F 32.1 °F 28.4 °F 70% 29.93 in 10.0 mi NW 6.9 mph - N/A   Clear
9:35 PM 37.4 °F 32.8 °F 28.4 °F 70% 29.93 in 10.0 mi NW 5.8 mph - N/A   Clear
9:55 PM 37.4 °F 32.8 °F 28.4 °F 70% 29.93 in 10.0 mi WNW 5.8 mph - N/A   Clear
10:15 PM 37.4 °F 32.1 °F 30.2 °F 75% 29.94 in 10.0 mi WNW 6.9 mph - N/A   Clear
10:35 PM 35.6 °F 30.7 °F 30.2 °F 81% 29.95 in 10.0 mi NW 5.8 mph 16.1 mph N/A   Clear
10:55 PM 35.6 °F 29.2 °F 30.2 °F 81% 29.95 in 10.0 mi NW 8.1 mph - N/A   Clear
11:15 PM 35.6 °F 29.9 °F 30.2 °F 81% 29.95 in 10.0 mi NW 6.9 mph 17.3 mph N/A   Clear
11:35 PM 37.4 °F 32.1 °F 30.2 °F 75% 29.95 in 10.0 mi NW 6.9 mph 17.3 mph N/A   Scattered Clouds
11:55 PM 37.4 °F 32.1 °F 28.4 °F 70% 29.96 in 10.0 mi NW 6.9 mph - N/A   Scattered Clouds